Year,Month,Day,Hour,Minute,Value (Times are PST for temperature in C)
2018,09,27,00,00,9.70
2018,09,27,00,01,9.70
2018,09,27,00,02,9.70
2018,09,27,00,03,9.70
2018,09,27,00,04,9.60
2018,09,27,00,05,9.60
2018,09,27,00,06,9.60
2018,09,27,00,07,9.60
2018,09,27,00,08,9.60
2018,09,27,00,09,9.60
2018,09,27,00,10,9.60
2018,09,27,00,11,9.60
2018,09,27,00,12,9.60
2018,09,27,00,13,9.60
2018,09,27,00,14,9.60
2018,09,27,00,15,9.60
2018,09,27,00,16,9.60
2018,09,27,00,17,9.60
2018,09,27,00,18,9.60
2018,09,27,00,19,9.60
2018,09,27,00,20,9.60
2018,09,27,00,21,9.60
2018,09,27,00,22,9.60
2018,09,27,00,23,9.60
2018,09,27,00,24,9.60
2018,09,27,00,25,9.60
2018,09,27,00,26,9.50
2018,09,27,00,27,9.50
2018,09,27,00,28,9.50
2018,09,27,00,29,9.50
2018,09,27,00,30,9.50
2018,09,27,00,31,9.50
2018,09,27,00,32,9.50
2018,09,27,00,33,9.50
2018,09,27,00,34,9.50
2018,09,27,00,35,9.40
2018,09,27,00,36,9.40
2018,09,27,00,37,9.40
2018,09,27,00,38,9.40
2018,09,27,00,39,9.40
2018,09,27,00,40,9.40
2018,09,27,00,41,9.40
2018,09,27,00,42,9.40
2018,09,27,00,43,9.40
2018,09,27,00,44,9.40
2018,09,27,00,45,9.40
2018,09,27,00,46,9.40
2018,09,27,00,47,9.40
2018,09,27,00,48,9.40
2018,09,27,00,49,9.30
2018,09,27,00,50,9.30
2018,09,27,00,51,9.30
2018,09,27,00,52,9.30
2018,09,27,00,53,9.30
2018,09,27,00,54,9.30
2018,09,27,00,55,9.30
2018,09,27,00,56,9.30
2018,09,27,00,57,9.30
2018,09,27,00,58,9.30
2018,09,27,00,59,9.30
2018,09,27,01,00,9.30
2018,09,27,01,01,9.30
2018,09,27,01,02,9.30
2018,09,27,01,03,9.30
2018,09,27,01,04,9.20
2018,09,27,01,05,9.20
2018,09,27,01,06,9.20
2018,09,27,01,07,9.20
2018,09,27,01,08,9.20
2018,09,27,01,09,9.20
2018,09,27,01,10,9.20
2018,09,27,01,11,9.20
2018,09,27,01,12,9.20
2018,09,27,01,13,9.20
2018,09,27,01,14,9.20
2018,09,27,01,15,9.20
2018,09,27,01,16,9.20
2018,09,27,01,17,9.20
2018,09,27,01,18,9.20
2018,09,27,01,19,9.20
2018,09,27,01,20,9.20
2018,09,27,01,21,9.20
2018,09,27,01,22,9.20
2018,09,27,01,23,9.20
2018,09,27,01,24,9.20
2018,09,27,01,25,9.20
2018,09,27,01,26,9.10
2018,09,27,01,27,9.10
2018,09,27,01,28,9.10
2018,09,27,01,29,9.10
2018,09,27,01,30,9.10
2018,09,27,01,31,9.10
2018,09,27,01,32,9.10
2018,09,27,01,33,9.10
2018,09,27,01,34,9.00
2018,09,27,01,35,9.00
2018,09,27,01,36,9.00
2018,09,27,01,37,9.00
2018,09,27,01,38,8.90
2018,09,27,01,39,8.90
2018,09,27,01,40,8.90
2018,09,27,01,41,8.90
2018,09,27,01,42,8.80
2018,09,27,01,43,8.80
2018,09,27,01,44,8.80
2018,09,27,01,45,8.80
2018,09,27,01,46,8.80
2018,09,27,01,47,8.70
2018,09,27,01,48,8.70
2018,09,27,01,49,8.70
2018,09,27,01,50,8.70
2018,09,27,01,51,8.70
2018,09,27,01,52,8.70
2018,09,27,01,53,8.70
2018,09,27,01,54,8.70
2018,09,27,01,55,8.70
2018,09,27,01,56,8.70
2018,09,27,01,57,8.70
2018,09,27,01,58,8.70
2018,09,27,01,59,8.70
2018,09,27,02,00,8.70
2018,09,27,02,01,8.70
2018,09,27,02,02,8.60
2018,09,27,02,03,8.60
2018,09,27,02,04,8.60
2018,09,27,02,05,8.60
2018,09,27,02,06,8.60
2018,09,27,02,07,8.60
2018,09,27,02,08,8.60
2018,09,27,02,09,8.60
2018,09,27,02,10,8.60
2018,09,27,02,11,8.60
2018,09,27,02,12,8.60
2018,09,27,02,13,8.60
2018,09,27,02,14,8.60
2018,09,27,02,15,8.60
2018,09,27,02,16,8.60
2018,09,27,02,17,8.60
2018,09,27,02,18,8.50
2018,09,27,02,19,8.50
2018,09,27,02,20,8.50
2018,09,27,02,21,8.50
2018,09,27,02,22,8.50
2018,09,27,02,23,8.50
2018,09,27,02,24,8.40
2018,09,27,02,25,8.40
2018,09,27,02,26,8.40
2018,09,27,02,27,8.40
2018,09,27,02,28,8.40
2018,09,27,02,29,8.40
2018,09,27,02,30,8.40
2018,09,27,02,31,8.40
2018,09,27,02,32,8.40
2018,09,27,02,33,8.40
2018,09,27,02,34,8.40
2018,09,27,02,35,8.50
2018,09,27,02,36,8.50
2018,09,27,02,37,8.50
2018,09,27,02,38,8.50
2018,09,27,02,39,8.50
2018,09,27,02,40,8.50
2018,09,27,02,41,8.50
2018,09,27,02,42,8.40
2018,09,27,02,43,8.50
2018,09,27,02,44,8.50
2018,09,27,02,45,8.40
2018,09,27,02,46,8.50
2018,09,27,02,47,8.50
2018,09,27,02,48,8.50
2018,09,27,02,49,8.50
2018,09,27,02,50,8.40
2018,09,27,02,51,8.40
2018,09,27,02,52,8.40
2018,09,27,02,53,8.40
2018,09,27,02,54,8.40
2018,09,27,02,55,8.40
2018,09,27,02,56,8.40
2018,09,27,02,57,8.40
2018,09,27,02,58,8.40
2018,09,27,02,59,8.40
2018,09,27,03,00,8.30
2018,09,27,03,01,8.30
2018,09,27,03,02,8.30
2018,09,27,03,03,8.30
2018,09,27,03,04,8.30
2018,09,27,03,05,8.30
2018,09,27,03,06,8.30
2018,09,27,03,07,8.30
2018,09,27,03,08,8.30
2018,09,27,03,09,8.30
2018,09,27,03,10,8.30
2018,09,27,03,11,8.30
2018,09,27,03,12,8.30
2018,09,27,03,13,8.30
2018,09,27,03,14,8.30
2018,09,27,03,15,8.30
2018,09,27,03,16,8.30
2018,09,27,03,17,8.30
2018,09,27,03,18,8.30
2018,09,27,03,19,8.30
2018,09,27,03,20,8.30
2018,09,27,03,21,8.30
2018,09,27,03,22,8.30
2018,09,27,03,23,8.30
2018,09,27,03,24,8.30
2018,09,27,03,25,8.30
2018,09,27,03,26,8.30
2018,09,27,03,27,8.30
2018,09,27,03,28,8.30
2018,09,27,03,29,8.20
2018,09,27,03,30,8.20
2018,09,27,03,31,8.20
2018,09,27,03,32,8.20
2018,09,27,03,33,8.20
2018,09,27,03,34,8.20
2018,09,27,03,35,8.20
2018,09,27,03,36,8.20
2018,09,27,03,37,8.20
2018,09,27,03,38,8.20
2018,09,27,03,39,8.20
2018,09,27,03,40,8.30
2018,09,27,03,41,8.30
2018,09,27,03,42,8.30
2018,09,27,03,43,8.30
2018,09,27,03,44,8.30
2018,09,27,03,45,8.30
2018,09,27,03,46,8.30
2018,09,27,03,47,8.30
2018,09,27,03,48,8.30
2018,09,27,03,49,8.30
2018,09,27,03,50,8.30
2018,09,27,03,51,8.30
2018,09,27,03,52,8.30
2018,09,27,03,53,8.30
2018,09,27,03,54,8.30
2018,09,27,03,55,8.30
2018,09,27,03,56,8.30
2018,09,27,03,57,8.30
2018,09,27,03,58,8.30
2018,09,27,03,59,8.20
2018,09,27,04,00,8.20
2018,09,27,04,01,8.20
2018,09,27,04,02,8.20
2018,09,27,04,03,8.20
2018,09,27,04,04,8.20
2018,09,27,04,05,8.20
2018,09,27,04,06,8.20
2018,09,27,04,07,8.20
2018,09,27,04,08,8.20
2018,09,27,04,09,8.20
2018,09,27,04,10,8.20
2018,09,27,04,11,8.20
2018,09,27,04,12,8.30
2018,09,27,04,13,8.30
2018,09,27,04,14,8.30
2018,09,27,04,15,8.30
2018,09,27,04,16,8.30
2018,09,27,04,17,8.30
2018,09,27,04,18,8.30
2018,09,27,04,19,8.30
2018,09,27,04,20,8.30
2018,09,27,04,21,8.30
2018,09,27,04,22,8.30
2018,09,27,04,23,8.30
2018,09,27,04,24,8.30
2018,09,27,04,25,8.30
2018,09,27,04,26,8.30
2018,09,27,04,27,8.20
2018,09,27,04,28,8.20
2018,09,27,04,29,8.20
2018,09,27,04,30,8.20
2018,09,27,04,31,8.20
2018,09,27,04,32,8.10
2018,09,27,04,33,8.10
2018,09,27,04,34,8.10
2018,09,27,04,35,8.10
2018,09,27,04,36,8.10
2018,09,27,04,37,8.00
2018,09,27,04,38,8.00
2018,09,27,04,39,8.00
2018,09,27,04,40,8.00
2018,09,27,04,41,7.90
2018,09,27,04,42,7.90
2018,09,27,04,43,7.90
2018,09,27,04,44,7.90
2018,09,27,04,45,7.90
2018,09,27,04,46,7.90
2018,09,27,04,47,7.90
2018,09,27,04,48,7.90
2018,09,27,04,49,7.80
2018,09,27,04,50,7.80
2018,09,27,04,51,7.80
2018,09,27,04,52,7.80
2018,09,27,04,53,7.80
2018,09,27,04,54,7.80
2018,09,27,04,55,7.80
2018,09,27,04,56,7.80
2018,09,27,04,57,7.80
2018,09,27,04,58,7.80
2018,09,27,04,59,7.80
2018,09,27,05,00,7.80
2018,09,27,05,01,7.80
2018,09,27,05,02,7.80
2018,09,27,05,03,7.80
2018,09,27,05,04,7.80
2018,09,27,05,05,7.80
2018,09,27,05,06,7.90
2018,09,27,05,07,7.90
2018,09,27,05,08,7.90
2018,09,27,05,09,7.90
2018,09,27,05,10,7.90
2018,09,27,05,11,7.90
2018,09,27,05,12,7.90
2018,09,27,05,13,8.00
2018,09,27,05,14,8.00
2018,09,27,05,15,8.00
2018,09,27,05,16,8.00
2018,09,27,05,17,8.00
2018,09,27,05,18,8.00
2018,09,27,05,19,7.90
2018,09,27,05,20,7.90
2018,09,27,05,21,7.90
2018,09,27,05,22,7.90
2018,09,27,05,23,7.90
2018,09,27,05,24,7.90
2018,09,27,05,25,7.90
2018,09,27,05,26,7.80
2018,09,27,05,27,7.80
2018,09,27,05,28,7.80
2018,09,27,05,29,7.80
2018,09,27,05,30,7.80
2018,09,27,05,31,7.80
2018,09,27,05,32,7.80
2018,09,27,05,33,7.80
2018,09,27,05,34,7.80
2018,09,27,05,35,7.80
2018,09,27,05,36,7.90
2018,09,27,05,37,7.90
2018,09,27,05,38,7.90
2018,09,27,05,39,7.90
2018,09,27,05,40,7.90
2018,09,27,05,41,7.90
2018,09,27,05,42,7.90
2018,09,27,05,43,7.90
2018,09,27,05,44,7.90
2018,09,27,05,45,7.90
2018,09,27,05,46,7.90
2018,09,27,05,47,8.00
2018,09,27,05,48,8.00
2018,09,27,05,49,8.00
2018,09,27,05,50,8.00
2018,09,27,05,51,8.00
2018,09,27,05,52,8.00
2018,09,27,05,53,8.00
2018,09,27,05,54,7.90
2018,09,27,05,55,7.90
2018,09,27,05,56,7.90
2018,09,27,05,57,7.90
2018,09,27,05,58,7.90
2018,09,27,05,59,7.90
2018,09,27,06,00,7.90
2018,09,27,06,01,7.90
2018,09,27,06,02,7.90
2018,09,27,06,03,8.00
2018,09,27,06,04,8.00
2018,09,27,06,05,8.00
2018,09,27,06,06,8.00
2018,09,27,06,07,8.00
2018,09,27,06,08,8.00
2018,09,27,06,09,8.00
2018,09,27,06,10,8.00
2018,09,27,06,11,8.00
2018,09,27,06,12,8.00
2018,09,27,06,13,8.00
2018,09,27,06,14,8.00
2018,09,27,06,15,8.00
2018,09,27,06,16,8.00
2018,09,27,06,17,8.10
2018,09,27,06,18,8.10
2018,09,27,06,19,8.10
2018,09,27,06,20,8.10
2018,09,27,06,21,8.10
2018,09,27,06,22,8.10
2018,09,27,06,23,8.10
2018,09,27,06,24,8.10
2018,09,27,06,25,8.10
2018,09,27,06,26,8.10
2018,09,27,06,27,8.10
2018,09,27,06,28,8.10
2018,09,27,06,29,8.10
2018,09,27,06,30,8.10
2018,09,27,06,31,8.10
2018,09,27,06,32,8.10
2018,09,27,06,33,8.10
2018,09,27,06,34,8.00
2018,09,27,06,35,8.10
2018,09,27,06,36,8.00
2018,09,27,06,37,8.00
2018,09,27,06,38,8.00
2018,09,27,06,39,8.00
2018,09,27,06,40,8.00
2018,09,27,06,41,8.00
2018,09,27,06,42,7.90
2018,09,27,06,43,7.90
2018,09,27,06,44,7.90
2018,09,27,06,45,7.90
2018,09,27,06,46,7.90
2018,09,27,06,47,7.90
2018,09,27,06,48,7.90
2018,09,27,06,49,7.90
2018,09,27,06,50,7.90
2018,09,27,06,51,7.80
2018,09,27,06,52,7.80
2018,09,27,06,53,7.80
2018,09,27,06,54,7.80
2018,09,27,06,55,7.80
2018,09,27,06,56,7.80
2018,09,27,06,57,7.80
2018,09,27,06,58,7.70
2018,09,27,06,59,7.70
2018,09,27,07,00,7.70
2018,09,27,07,01,7.70
2018,09,27,07,02,7.80
2018,09,27,07,03,7.70
2018,09,27,07,04,7.70
2018,09,27,07,05,7.70
2018,09,27,07,06,7.70
2018,09,27,07,07,7.70
2018,09,27,07,08,7.70
2018,09,27,07,09,7.70
2018,09,27,07,10,7.70
2018,09,27,07,11,7.70
2018,09,27,07,12,7.70
2018,09,27,07,13,7.60
2018,09,27,07,14,7.60
2018,09,27,07,15,7.60
2018,09,27,07,16,7.60
2018,09,27,07,17,7.60
2018,09,27,07,18,7.60
2018,09,27,07,19,7.60
2018,09,27,07,20,7.60
2018,09,27,07,21,7.60
2018,09,27,07,22,7.60
2018,09,27,07,23,7.60
2018,09,27,07,24,7.50
2018,09,27,07,25,7.50
2018,09,27,07,26,7.50
2018,09,27,07,27,7.50
2018,09,27,07,28,7.50
2018,09,27,07,29,7.40
2018,09,27,07,30,7.40
2018,09,27,07,31,7.40
2018,09,27,07,32,7.40
2018,09,27,07,33,7.40
2018,09,27,07,34,7.40
2018,09,27,07,35,7.40
2018,09,27,07,36,7.40
2018,09,27,07,37,7.40
2018,09,27,07,38,7.40
2018,09,27,07,39,7.40
2018,09,27,07,40,7.50
2018,09,27,07,41,7.50
2018,09,27,07,42,7.50
2018,09,27,07,43,7.50
2018,09,27,07,44,7.60
2018,09,27,07,45,7.60
2018,09,27,07,46,7.60
2018,09,27,07,47,7.60
2018,09,27,07,48,7.60
2018,09,27,07,49,7.70
2018,09,27,07,50,7.70
2018,09,27,07,51,7.70
2018,09,27,07,52,7.80
2018,09,27,07,53,7.80
2018,09,27,07,54,7.80
2018,09,27,07,55,7.80
2018,09,27,07,56,7.80
2018,09,27,07,57,7.90
2018,09,27,07,58,7.90
2018,09,27,07,59,7.90
2018,09,27,08,00,7.90
2018,09,27,08,01,7.90
2018,09,27,08,02,7.90
2018,09,27,08,03,7.90
2018,09,27,08,04,7.90
2018,09,27,08,05,7.90
2018,09,27,08,06,8.00
2018,09,27,08,07,8.00
2018,09,27,08,08,8.00
2018,09,27,08,09,8.00
2018,09,27,08,10,8.10
2018,09,27,08,11,8.10
2018,09,27,08,12,8.10
2018,09,27,08,13,8.10
2018,09,27,08,14,8.10
2018,09,27,08,15,8.10
2018,09,27,08,16,8.10
2018,09,27,08,17,8.10
2018,09,27,08,18,8.10
2018,09,27,08,19,8.20
2018,09,27,08,20,8.20
2018,09,27,08,21,8.30
2018,09,27,08,22,8.30
2018,09,27,08,23,8.40
2018,09,27,08,24,8.50
2018,09,27,08,25,8.60
2018,09,27,08,26,8.60
2018,09,27,08,27,8.70
2018,09,27,08,28,8.80
2018,09,27,08,29,8.80
2018,09,27,08,30,8.90
2018,09,27,08,31,9.00
2018,09,27,08,32,9.10
2018,09,27,08,33,9.20
2018,09,27,08,34,9.30
2018,09,27,08,35,9.40
2018,09,27,08,36,9.40
2018,09,27,08,37,9.50
2018,09,27,08,38,9.50
2018,09,27,08,39,9.60
2018,09,27,08,40,9.70
2018,09,27,08,41,9.70
2018,09,27,08,42,9.80
2018,09,27,08,43,9.80
2018,09,27,08,44,9.90
2018,09,27,08,45,9.90
2018,09,27,08,46,10.00
2018,09,27,08,47,10.10
2018,09,27,08,48,10.10
2018,09,27,08,49,10.20
2018,09,27,08,50,10.30
2018,09,27,08,51,10.40
2018,09,27,08,52,10.50
2018,09,27,08,53,10.60
2018,09,27,08,54,10.70
2018,09,27,08,55,10.80
2018,09,27,08,56,10.80
2018,09,27,08,57,10.90
2018,09,27,08,58,11.00
2018,09,27,08,59,11.10
2018,09,27,09,00,11.20
2018,09,27,09,01,11.30
2018,09,27,09,02,11.40
2018,09,27,09,03,11.50
2018,09,27,09,04,11.50
2018,09,27,09,05,11.60
2018,09,27,09,06,11.70
2018,09,27,09,07,11.80
2018,09,27,09,08,11.90
2018,09,27,09,09,12.00
2018,09,27,09,10,12.10
2018,09,27,09,11,12.20
2018,09,27,09,12,12.30
2018,09,27,09,13,12.40
2018,09,27,09,14,12.50
2018,09,27,09,15,12.60
2018,09,27,09,16,12.70
2018,09,27,09,17,12.80
2018,09,27,09,18,12.90
2018,09,27,09,19,13.00
2018,09,27,09,20,13.10
2018,09,27,09,21,13.20
2018,09,27,09,22,13.30
2018,09,27,09,23,13.40
2018,09,27,09,24,13.50
2018,09,27,09,25,13.60
2018,09,27,09,26,13.70
2018,09,27,09,27,13.80
2018,09,27,09,28,13.90
2018,09,27,09,29,14.00
2018,09,27,09,30,14.10
2018,09,27,09,31,14.20
2018,09,27,09,32,14.30
2018,09,27,09,33,14.40
2018,09,27,09,34,14.50
2018,09,27,09,35,14.60
2018,09,27,09,36,14.70
2018,09,27,09,37,14.70
2018,09,27,09,38,14.80
2018,09,27,09,39,14.90
2018,09,27,09,40,14.90
2018,09,27,09,41,14.90
2018,09,27,09,42,15.00
2018,09,27,09,43,15.10
2018,09,27,09,44,15.10
2018,09,27,09,45,15.20
2018,09,27,09,46,15.30
2018,09,27,09,47,15.30
2018,09,27,09,48,15.40
2018,09,27,09,49,15.40
2018,09,27,09,50,15.50
2018,09,27,09,51,15.60
2018,09,27,09,52,15.70
2018,09,27,09,53,15.70
2018,09,27,09,54,15.70
2018,09,27,09,55,15.80
2018,09,27,09,56,15.90
2018,09,27,09,57,15.90
2018,09,27,09,58,16.00
2018,09,27,09,59,16.00
2018,09,27,10,00,16.00
2018,09,27,10,01,16.10
2018,09,27,10,02,16.20
2018,09,27,10,03,16.30
2018,09,27,10,04,16.40
2018,09,27,10,05,16.40
2018,09,27,10,06,16.40
2018,09,27,10,07,16.40
2018,09,27,10,08,16.40
2018,09,27,10,09,16.50
2018,09,27,10,10,16.60
2018,09,27,10,11,16.60
2018,09,27,10,12,16.70
2018,09,27,10,13,16.70
2018,09,27,10,14,16.80
2018,09,27,10,15,16.80
2018,09,27,10,16,16.90
2018,09,27,10,17,16.90
2018,09,27,10,18,16.90
2018,09,27,10,19,16.90
2018,09,27,10,20,17.00
2018,09,27,10,21,17.00
2018,09,27,10,22,17.10
2018,09,27,10,23,17.10
2018,09,27,10,24,17.20
2018,09,27,10,25,17.20
2018,09,27,10,26,17.20
2018,09,27,10,27,17.20
2018,09,27,10,28,17.30
2018,09,27,10,29,17.30
2018,09,27,10,30,17.30
2018,09,27,10,31,17.30
2018,09,27,10,32,17.20
2018,09,27,10,33,17.20
2018,09,27,10,34,17.20
2018,09,27,10,35,17.30
2018,09,27,10,36,17.30
2018,09,27,10,37,17.40
2018,09,27,10,38,17.40
2018,09,27,10,39,17.50
2018,09,27,10,40,17.50
2018,09,27,10,41,17.50
2018,09,27,10,42,17.60
2018,09,27,10,43,17.70
2018,09,27,10,44,17.70
2018,09,27,10,45,17.80
2018,09,27,10,46,17.90
2018,09,27,10,47,18.00
2018,09,27,10,48,18.10
2018,09,27,10,49,18.20
2018,09,27,10,50,18.20
2018,09,27,10,51,18.30
2018,09,27,10,52,18.30
2018,09,27,10,53,18.30
2018,09,27,10,54,18.30
2018,09,27,10,55,18.20
2018,09,27,10,56,18.20
2018,09,27,10,57,18.20
2018,09,27,10,58,18.20
2018,09,27,10,59,18.30
2018,09,27,11,00,18.30
2018,09,27,11,01,18.30
2018,09,27,11,02,18.30
2018,09,27,11,03,18.30
2018,09,27,11,04,18.40
2018,09,27,11,05,18.50
2018,09,27,11,06,18.60
2018,09,27,11,07,18.70
2018,09,27,11,08,18.70
2018,09,27,11,09,18.80
2018,09,27,11,10,18.90
2018,09,27,11,11,18.90
2018,09,27,11,12,19.00
2018,09,27,11,13,19.00
2018,09,27,11,14,19.10
2018,09,27,11,15,19.20
2018,09,27,11,16,19.20
2018,09,27,11,17,19.30
2018,09,27,11,18,19.30
2018,09,27,11,19,19.40
2018,09,27,11,20,19.50
2018,09,27,11,21,19.60
2018,09,27,11,22,19.60
2018,09,27,11,23,19.70
2018,09,27,11,24,19.80
2018,09,27,11,25,19.80
2018,09,27,11,26,19.80
2018,09,27,11,27,19.70
2018,09,27,11,28,19.70
2018,09,27,11,29,19.60
2018,09,27,11,30,19.60
2018,09,27,11,31,19.60
2018,09,27,11,32,19.60
2018,09,27,11,33,19.60
2018,09,27,11,34,19.70
2018,09,27,11,35,19.70
2018,09,27,11,36,19.70
2018,09,27,11,37,19.70
2018,09,27,11,38,19.60
2018,09,27,11,39,19.60
2018,09,27,11,40,19.60
2018,09,27,11,41,19.60
2018,09,27,11,42,19.70
2018,09,27,11,43,19.60
2018,09,27,11,44,19.60
2018,09,27,11,45,19.60
2018,09,27,11,46,19.70
2018,09,27,11,47,19.70
2018,09,27,11,48,19.80
2018,09,27,11,49,19.80
2018,09,27,11,50,19.80
2018,09,27,11,51,19.80
2018,09,27,11,52,19.80
2018,09,27,11,53,19.80
2018,09,27,11,54,19.70
2018,09,27,11,55,19.70
2018,09,27,11,56,19.70
2018,09,27,11,57,19.70
2018,09,27,11,58,19.70
2018,09,27,11,59,19.70
2018,09,27,12,00,19.50
2018,09,27,12,01,19.50
2018,09,27,12,02,19.40
2018,09,27,12,03,19.40
2018,09,27,12,04,19.40
2018,09,27,12,05,19.40
2018,09,27,12,06,19.40
2018,09,27,12,07,19.40
2018,09,27,12,08,19.50
2018,09,27,12,09,19.60
2018,09,27,12,10,19.70
2018,09,27,12,11,19.70
2018,09,27,12,12,19.80
2018,09,27,12,13,19.80
2018,09,27,12,14,19.90
2018,09,27,12,15,20.00
2018,09,27,12,16,20.10
2018,09,27,12,17,20.10
2018,09,27,12,18,20.20
2018,09,27,12,19,20.20
2018,09,27,12,20,20.20
2018,09,27,12,21,20.20
2018,09,27,12,22,20.20
2018,09,27,12,23,20.20
2018,09,27,12,24,20.10
2018,09,27,12,25,20.00
2018,09,27,12,26,20.00
2018,09,27,12,27,19.90
2018,09,27,12,28,19.90
2018,09,27,12,29,19.90
2018,09,27,12,30,19.90
2018,09,27,12,31,19.90
2018,09,27,12,32,19.90
2018,09,27,12,33,20.00
2018,09,27,12,34,20.00
2018,09,27,12,35,20.10
2018,09,27,12,36,20.10
2018,09,27,12,37,20.10
2018,09,27,12,38,20.10
2018,09,27,12,39,20.10
2018,09,27,12,40,20.10
2018,09,27,12,41,20.10
2018,09,27,12,42,20.10
2018,09,27,12,43,20.10
2018,09,27,12,44,20.20
2018,09,27,12,45,20.20
2018,09,27,12,46,20.20
2018,09,27,12,47,20.10
2018,09,27,12,48,20.10
2018,09,27,12,49,20.10
2018,09,27,12,50,20.10
2018,09,27,12,51,20.00
2018,09,27,12,52,20.00
2018,09,27,12,53,19.90
2018,09,27,12,54,19.90
2018,09,27,12,55,19.90
2018,09,27,12,56,20.00
2018,09,27,12,57,20.00
2018,09,27,12,58,20.10
2018,09,27,12,59,20.10
2018,09,27,13,00,20.20
2018,09,27,13,01,20.30
2018,09,27,13,02,20.30
2018,09,27,13,03,20.40
2018,09,27,13,04,20.50
2018,09,27,13,05,20.50
2018,09,27,13,06,20.40
2018,09,27,13,07,20.40
2018,09,27,13,08,20.40
2018,09,27,13,09,20.40
2018,09,27,13,10,20.40
2018,09,27,13,11,20.40
2018,09,27,13,12,20.40
2018,09,27,13,13,20.40
2018,09,27,13,14,20.50
2018,09,27,13,15,20.50
2018,09,27,13,16,20.50
2018,09,27,13,17,20.50
2018,09,27,13,18,20.50
2018,09,27,13,19,20.60
2018,09,27,13,20,20.60
2018,09,27,13,21,20.60
2018,09,27,13,22,20.60
2018,09,27,13,23,20.60
2018,09,27,13,24,20.60
2018,09,27,13,25,20.60
2018,09,27,13,26,20.50
2018,09,27,13,27,20.50
2018,09,27,13,28,20.50
2018,09,27,13,29,20.50
2018,09,27,13,30,20.60
2018,09,27,13,31,20.60
2018,09,27,13,32,20.60
2018,09,27,13,33,20.60
2018,09,27,13,34,20.60
2018,09,27,13,35,20.60
2018,09,27,13,36,20.60
2018,09,27,13,37,20.60
2018,09,27,13,38,20.70
2018,09,27,13,39,20.70
2018,09,27,13,40,20.70
2018,09,27,13,41,20.70
2018,09,27,13,42,20.70
2018,09,27,13,43,20.70
2018,09,27,13,44,20.60
2018,09,27,13,45,20.60
2018,09,27,13,46,20.60
2018,09,27,13,47,20.60
2018,09,27,13,48,20.70
2018,09,27,13,49,20.70
2018,09,27,13,50,20.80
2018,09,27,13,51,20.80
2018,09,27,13,52,20.90
2018,09,27,13,53,20.90
2018,09,27,13,54,20.90
2018,09,27,13,55,20.90
2018,09,27,13,56,20.90
2018,09,27,13,57,20.80
2018,09,27,13,58,20.70
2018,09,27,13,59,20.60
2018,09,27,14,00,20.50
2018,09,27,14,01,20.50
2018,09,27,14,02,20.50
2018,09,27,14,03,20.50
2018,09,27,14,04,20.50
2018,09,27,14,05,20.40
2018,09,27,14,06,20.40
2018,09,27,14,07,20.40
2018,09,27,14,08,20.50
2018,09,27,14,09,20.50
2018,09,27,14,10,20.50
2018,09,27,14,11,20.50
2018,09,27,14,12,20.40
2018,09,27,14,13,20.30
2018,09,27,14,14,20.30
2018,09,27,14,15,20.30
2018,09,27,14,16,20.30
2018,09,27,14,17,20.30
2018,09,27,14,18,20.30
2018,09,27,14,19,20.30
2018,09,27,14,20,20.30
2018,09,27,14,21,20.30
2018,09,27,14,22,20.30
2018,09,27,14,23,20.30
2018,09,27,14,24,20.30
2018,09,27,14,25,20.30
2018,09,27,14,26,20.30
2018,09,27,14,27,20.30
2018,09,27,14,28,20.30
2018,09,27,14,29,20.30
2018,09,27,14,30,20.30
2018,09,27,14,31,20.30
2018,09,27,14,32,20.30
2018,09,27,14,33,20.40
2018,09,27,14,34,20.40
2018,09,27,14,35,20.50
2018,09,27,14,36,20.50
2018,09,27,14,37,20.50
2018,09,27,14,38,20.60
2018,09,27,14,39,20.70
2018,09,27,14,40,20.70
2018,09,27,14,41,20.80
2018,09,27,14,42,20.80
2018,09,27,14,43,20.80
2018,09,27,14,44,20.80
2018,09,27,14,45,20.80
2018,09,27,14,46,20.80
2018,09,27,14,47,20.80
2018,09,27,14,48,20.90
2018,09,27,14,49,20.90
2018,09,27,14,50,20.90
2018,09,27,14,51,21.00
2018,09,27,14,52,21.00
2018,09,27,14,53,21.00
2018,09,27,14,54,21.00
2018,09,27,14,55,21.00
2018,09,27,14,56,21.00
2018,09,27,14,57,21.00
2018,09,27,14,58,21.00
2018,09,27,14,59,21.10
2018,09,27,15,00,21.10
2018,09,27,15,01,21.10
2018,09,27,15,02,21.00
2018,09,27,15,03,21.00
2018,09,27,15,04,21.00
2018,09,27,15,05,20.90
2018,09,27,15,06,20.90
2018,09,27,15,07,20.90
2018,09,27,15,08,20.80
2018,09,27,15,09,20.80
2018,09,27,15,10,20.80
2018,09,27,15,11,20.80
2018,09,27,15,12,20.80
2018,09,27,15,13,20.80
2018,09,27,15,14,20.80
2018,09,27,15,15,20.80
2018,09,27,15,16,20.90
2018,09,27,15,17,20.90
2018,09,27,15,18,20.90
2018,09,27,15,19,20.90
2018,09,27,15,20,20.90
2018,09,27,15,21,20.80
2018,09,27,15,22,20.80
2018,09,27,15,23,20.80
2018,09,27,15,24,20.80
2018,09,27,15,25,20.90
2018,09,27,15,26,20.90
2018,09,27,15,27,21.00
2018,09,27,15,28,21.00
2018,09,27,15,29,21.00
2018,09,27,15,30,21.10
2018,09,27,15,31,21.10
2018,09,27,15,32,21.20
2018,09,27,15,33,21.20
2018,09,27,15,34,21.20
2018,09,27,15,35,21.10
2018,09,27,15,36,21.10
2018,09,27,15,37,21.10
2018,09,27,15,38,21.10
2018,09,27,15,39,21.10
2018,09,27,15,40,21.00
2018,09,27,15,41,21.00
2018,09,27,15,42,21.00
2018,09,27,15,43,21.00
2018,09,27,15,44,21.00
2018,09,27,15,45,20.90
2018,09,27,15,46,20.90
2018,09,27,15,47,20.90
2018,09,27,15,48,20.90
2018,09,27,15,49,20.90
2018,09,27,15,50,20.90
2018,09,27,15,51,20.90
2018,09,27,15,52,20.90
2018,09,27,15,53,20.90
2018,09,27,15,54,20.90
2018,09,27,15,55,20.90
2018,09,27,15,56,20.90
2018,09,27,15,57,20.80
2018,09,27,15,58,20.80
2018,09,27,15,59,20.80
2018,09,27,16,00,20.70
2018,09,27,16,01,20.70
2018,09,27,16,02,20.70
2018,09,27,16,03,20.60
2018,09,27,16,04,20.50
2018,09,27,16,05,20.40
2018,09,27,16,06,20.40
2018,09,27,16,07,20.40
2018,09,27,16,08,20.40
2018,09,27,16,09,20.40
2018,09,27,16,10,20.30
2018,09,27,16,11,20.40
2018,09,27,16,12,20.40
2018,09,27,16,13,20.40
2018,09,27,16,14,20.40
2018,09,27,16,15,20.40
2018,09,27,16,16,20.40
2018,09,27,16,17,20.40
2018,09,27,16,18,20.40
2018,09,27,16,19,20.40
2018,09,27,16,20,20.40
2018,09,27,16,21,20.40
2018,09,27,16,22,20.40
2018,09,27,16,23,20.40
2018,09,27,16,24,20.50
2018,09,27,16,25,20.50
2018,09,27,16,26,20.50
2018,09,27,16,27,20.50
2018,09,27,16,28,20.60
2018,09,27,16,29,20.60
2018,09,27,16,30,20.50
2018,09,27,16,31,20.50
2018,09,27,16,32,20.50
2018,09,27,16,33,20.50
2018,09,27,16,34,20.50
2018,09,27,16,35,20.50
2018,09,27,16,36,20.50
2018,09,27,16,37,20.50
2018,09,27,16,38,20.50
2018,09,27,16,39,20.40
2018,09,27,16,40,20.40
2018,09,27,16,41,20.40
2018,09,27,16,42,20.40
2018,09,27,16,43,20.30
2018,09,27,16,44,20.30
2018,09,27,16,45,20.30
2018,09,27,16,46,20.30
2018,09,27,16,47,20.30
2018,09,27,16,48,20.30
2018,09,27,16,49,20.30
2018,09,27,16,50,20.30
2018,09,27,16,51,20.30
2018,09,27,16,52,20.30
2018,09,27,16,53,20.30
2018,09,27,16,54,20.30
2018,09,27,16,55,20.30
2018,09,27,16,56,20.30
2018,09,27,16,57,20.30
2018,09,27,16,58,20.30
2018,09,27,16,59,20.30
2018,09,27,17,00,20.30
2018,09,27,17,01,20.30
2018,09,27,17,02,20.20
2018,09,27,17,03,20.20
2018,09,27,17,04,20.20
2018,09,27,17,05,20.20
2018,09,27,17,06,20.20
2018,09,27,17,07,20.20
2018,09,27,17,08,20.20
2018,09,27,17,09,20.20
2018,09,27,17,10,20.20
2018,09,27,17,11,20.20
2018,09,27,17,12,20.20
2018,09,27,17,13,20.20
2018,09,27,17,14,20.20
2018,09,27,17,15,20.20
2018,09,27,17,16,20.20
2018,09,27,17,17,20.20
2018,09,27,17,18,20.20
2018,09,27,17,19,20.20
2018,09,27,17,20,20.20
2018,09,27,17,21,20.20
2018,09,27,17,22,20.20
2018,09,27,17,23,20.20
2018,09,27,17,24,20.20
2018,09,27,17,25,20.20
2018,09,27,17,26,20.20
2018,09,27,17,27,20.20
2018,09,27,17,28,20.20
2018,09,27,17,29,20.20
2018,09,27,17,30,20.20
2018,09,27,17,31,20.20
2018,09,27,17,32,20.20
2018,09,27,17,33,20.20
2018,09,27,17,34,20.20
2018,09,27,17,35,20.20
2018,09,27,17,36,20.20
2018,09,27,17,37,20.20
2018,09,27,17,38,20.20
2018,09,27,17,39,20.30
2018,09,27,17,40,20.30
2018,09,27,17,41,20.30
2018,09,27,17,42,20.30